C/2013 C2 ( Tenagra )

Japanese version
Home page
Updated on August 9, 2016

---------------------------------------------------------------------

* Profile

Discovery Date February 14, 2013
Magnitude 19.0 mag
Discoverer P. R. Holvorcem, M. Schwartz (Tenagra Observatory)

* Pictures

* Orbital Elements

Epoch 2015 Sept. 15.0 TT = JDT 2457280.5
T 2015 Aug. 30.27257 TT                                 MPCW
q   9.1310465            (2000.0)            P               Q
n   0.01531175     Peri.  308.79018     -0.91035484     +0.24122873
a  16.0615018      Node   247.52467     -0.16365556     -0.95615257
e   0.4314948      Incl.   21.33913     -0.38009330     -0.16607517
P  64.4
From 314 observations 2013 Feb. 14-2016 Feb. 5, mean residual 0".5.

* Magnitudes Graph

        m1 = 3.5 + 5 log d + 10.0 log r

---------------------------------------------------------------------

The orbital elements are published on M.P.E.C. 2016-D32.
The magnitudes graphs are made with Comet for Windows.

---------------------------------------------------------------------

Copyright(C) Seiichi Yoshida (comet@aerith.net). All rights reserved.